WZZ5463 EGGW-EDLW

Flight info

Callsign WZZ5463
Flight time 0h 52m
Altitude 33000
Route MATCH Q295 BRAIN M197 REDFA L620 TACHA DCT PAM L620 SONEB Z841 DOMEG DOMEG2A
Aircraft A321/M-SDE1E2E3FGIJ1J4RWXY/LB1

Departure

Time 2026-05-07 12:56
Airport London Luton Airport (EGGW)

Arrival

Time 2026-05-07 13:49
Airport Dortmund Airport (EDLW)
Time Latitude Longitude Altitude Speed Heading
2026-05-07 12:20 51.87980 -0.37207 508 ft 0 kts 161°
2026-05-07 12:47 51.87998 -0.37216 508 ft 4 kts 161°
2026-05-07 12:47 51.88023 -0.37229 508 ft 4 kts 161°
2026-05-07 12:47 51.88043 -0.37240 508 ft 0 kts 161°
2026-05-07 12:50 51.88041 -0.37237 508 ft 0 kts 151°
2026-05-07 12:50 51.88040 -0.37234 508 ft 1 kts 131°
2026-05-07 12:51 51.88038 -0.37206 508 ft 3 kts 91°
2026-05-07 12:51 51.88032 -0.37159 508 ft 7 kts 113°
2026-05-07 12:51 51.87988 -0.37115 508 ft 8 kts 164°
2026-05-07 12:51 51.87930 -0.37086 509 ft 9 kts 161°
2026-05-07 12:52 51.87868 -0.37052 511 ft 8 kts 161°
2026-05-07 12:52 51.87823 -0.37028 513 ft 6 kts 162°
2026-05-07 12:52 51.87780 -0.37006 516 ft 8 kts 162°
2026-05-07 12:52 51.87725 -0.36977 520 ft 8 kts 162°
2026-05-07 12:53 51.87674 -0.36952 524 ft 6 kts 171°
2026-05-07 12:53 51.87633 -0.36978 523 ft 9 kts 227°
2026-05-07 12:53 51.87608 -0.37093 522 ft 12 kts 255°
2026-05-07 12:53 51.87586 -0.37225 522 ft 13 kts 255°
2026-05-07 12:54 51.87583 -0.37374 522 ft 14 kts 273°
2026-05-07 12:54 51.87526 -0.37489 521 ft 15 kts 220°
2026-05-07 12:54 51.87487 -0.37634 523 ft 14 kts 254°
2026-05-07 12:54 51.87460 -0.37793 522 ft 16 kts 254°
2026-05-07 12:55 51.87430 -0.37963 524 ft 16 kts 251°
2026-05-07 12:55 51.87353 -0.38080 523 ft 17 kts 206°
2026-05-07 12:55 51.87266 -0.38115 523 ft 8 kts 163°
2026-05-07 12:55 51.87256 -0.38041 524 ft 8 kts 84°
2026-05-07 12:56 51.87305 -0.37754 523 ft 61 kts 74°
2026-05-07 12:56 51.87484 -0.36720 526 ft 127 kts 74°
2026-05-07 12:56 51.87749 -0.35183 957 ft 141 kts 77°
2026-05-07 12:56 51.88014 -0.33646 1680 ft 142 kts 77°
2026-05-07 12:57 51.88289 -0.32043 2148 ft 155 kts 77°
2026-05-07 12:57 51.88600 -0.30222 2386 ft 176 kts 77°
2026-05-07 12:57 51.88940 -0.28217 2569 ft 199 kts 76°
2026-05-07 12:57 51.89330 -0.25930 2817 ft 221 kts 76°
2026-05-07 12:58 51.89521 -0.23405 3282 ft 230 kts 102°
2026-05-07 12:58 51.88868 -0.21089 4069 ft 229 kts 133°
2026-05-07 12:58 51.87556 -0.19687 4886 ft 228 kts 159°
2026-05-07 12:58 51.86046 -0.18722 5436 ft 244 kts 157°
2026-05-07 12:59 51.84438 -0.17564 5934 ft 259 kts 156°
2026-05-07 12:59 51.82875 -0.16067 6649 ft 266 kts 139°
2026-05-07 12:59 51.81796 -0.13617 7343 ft 273 kts 112°
2026-05-07 12:59 51.81501 -0.10570 8066 ft 280 kts 89°
2026-05-07 13:00 51.81586 -0.07414 8828 ft 283 kts 88°
2026-05-07 13:00 51.81679 -0.04223 9595 ft 286 kts 89°
2026-05-07 13:00 51.81770 -0.00997 10273 ft 292 kts 89°
2026-05-07 13:00 51.81860 0.02407 10448 ft 315 kts 88°
2026-05-07 13:01 51.81955 0.06056 10725 ft 332 kts 88°
2026-05-07 13:01 51.82050 0.09825 11305 ft 338 kts 89°
2026-05-07 13:01 51.82148 0.13644 11975 ft 342 kts 89°
2026-05-07 13:01 51.82244 0.17499 12653 ft 345 kts 89°
2026-05-07 13:02 51.82336 0.21396 13321 ft 349 kts 89°
2026-05-07 13:02 51.82425 0.25329 13969 ft 352 kts 89°
2026-05-07 13:02 51.82516 0.29302 14557 ft 355 kts 89°
2026-05-07 13:02 51.82605 0.33316 15129 ft 359 kts 89°
2026-05-07 13:03 51.82696 0.37375 15715 ft 363 kts 89°
2026-05-07 13:03 51.82789 0.41472 16300 ft 367 kts 89°
2026-05-07 13:03 51.82882 0.45618 16879 ft 371 kts 89°
2026-05-07 13:03 51.82978 0.49805 17455 ft 375 kts 89°
2026-05-07 13:04 51.83073 0.54036 18039 ft 378 kts 89°
2026-05-07 13:04 51.83164 0.58308 18579 ft 382 kts 89°
2026-05-07 13:04 51.83252 0.62618 19095 ft 385 kts 89°
2026-05-07 13:04 51.83339 0.66960 19619 ft 388 kts 89°
2026-05-07 13:05 51.83423 0.71340 20148 ft 391 kts 89°
2026-05-07 13:05 51.83507 0.75749 20678 ft 394 kts 89°
2026-05-07 13:05 51.83643 0.80187 21195 ft 398 kts 84°
2026-05-07 13:05 51.84183 0.84593 21712 ft 402 kts 75°
2026-05-07 13:06 51.84971 0.88878 22225 ft 405 kts 74°
2026-05-07 13:06 51.85786 0.93320 22743 ft 408 kts 74°
2026-05-07 13:06 51.86582 0.97677 23228 ft 411 kts 74°
2026-05-07 13:06 51.87392 1.02127 23706 ft 414 kts 74°
2026-05-07 13:07 51.88204 1.06608 24102 ft 416 kts 74°
2026-05-07 13:07 51.89019 1.11122 24512 ft 419 kts 74°
2026-05-07 13:07 51.89835 1.15653 24922 ft 420 kts 75°
2026-05-07 13:07 51.90654 1.20207 25348 ft 422 kts 75°
2026-05-07 13:08 51.91475 1.24786 25755 ft 424 kts 75°
2026-05-07 13:08 51.92297 1.29382 26168 ft 426 kts 75°
2026-05-07 13:08 51.93117 1.34002 26559 ft 428 kts 75°
2026-05-07 13:08 51.93939 1.38638 26965 ft 429 kts 75°
2026-05-07 13:09 51.94764 1.43303 27334 ft 431 kts 75°
2026-05-07 13:09 51.95589 1.47980 27742 ft 433 kts 75°
2026-05-07 13:09 51.96415 1.52678 28126 ft 434 kts 75°
2026-05-07 13:09 51.97246 1.57399 28514 ft 436 kts 75°
2026-05-07 13:10 51.98078 1.62139 28888 ft 438 kts 75°
2026-05-07 13:10 51.98911 1.66898 29247 ft 440 kts 75°
2026-05-07 13:10 51.99730 1.71686 29618 ft 441 kts 76°
2026-05-07 13:10 52.00505 1.76505 29965 ft 443 kts 76°
2026-05-07 13:11 52.01254 1.81364 30298 ft 444 kts 77°
2026-05-07 13:11 52.01990 1.86245 30581 ft 446 kts 77°
2026-05-07 13:11 52.02725 1.91147 30856 ft 448 kts 77°
2026-05-07 13:11 52.03467 1.96069 31169 ft 449 kts 77°
2026-05-07 13:12 52.04215 2.00988 31560 ft 448 kts 77°
2026-05-07 13:12 52.04965 2.05885 31984 ft 446 kts 77°
2026-05-07 13:12 52.05717 2.10778 32363 ft 446 kts 76°
2026-05-07 13:12 52.06470 2.15661 32734 ft 445 kts 76°
2026-05-07 13:13 52.07218 2.20548 33037 ft 446 kts 77°
2026-05-07 13:13 52.07956 2.25414 33103 ft 438 kts 77°
2026-05-07 13:13 52.09384 2.34904 33103 ft 429 kts 77°
2026-05-07 13:14 52.10557 2.42741 33106 ft 429 kts 77°
2026-05-07 13:14 52.11447 2.53874 33108 ft 430 kts 91°
2026-05-07 13:15 52.11403 2.63607 33103 ft 430 kts 91°
2026-05-07 13:15 52.11368 2.71769 33107 ft 431 kts 91°
2026-05-07 13:16 52.11314 2.81517 33115 ft 431 kts 91°
2026-05-07 13:16 52.11254 2.91276 33119 ft 431 kts 91°
2026-05-07 13:17 52.11183 3.01042 33104 ft 432 kts 91°
2026-05-07 13:17 52.11107 3.10780 33097 ft 434 kts 91°
2026-05-07 13:18 52.11019 3.20608 33099 ft 435 kts 91°
2026-05-07 13:18 52.10925 3.30468 33107 ft 436 kts 91°
2026-05-07 13:19 52.10820 3.40331 33116 ft 436 kts 91°
2026-05-07 13:19 52.10709 3.50211 33110 ft 437 kts 92°
2026-05-07 13:20 52.10588 3.60103 33112 ft 438 kts 92°
2026-05-07 13:20 52.10462 3.70013 33116 ft 438 kts 92°
2026-05-07 13:21 52.10325 3.79931 33112 ft 439 kts 92°
2026-05-07 13:21 52.10173 3.89848 33113 ft 439 kts 92°
2026-05-07 13:22 52.10021 3.99772 33099 ft 439 kts 92°
2026-05-07 13:22 52.09868 4.09709 33100 ft 440 kts 92°
2026-05-07 13:23 52.09696 4.19658 33096 ft 440 kts 92°
2026-05-07 13:23 52.09513 4.29615 33099 ft 441 kts 92°
2026-05-07 13:24 52.09319 4.39571 33092 ft 441 kts 92°
2026-05-07 13:24 52.09115 4.49701 33077 ft 455 kts 92°
2026-05-07 13:25 52.08907 4.60010 33073 ft 457 kts 92°
2026-05-07 13:25 52.08694 4.70110 32631 ft 444 kts 93°
2026-05-07 13:26 52.08581 4.75102 32135 ft 440 kts 93°
2026-05-07 13:26 52.08468 4.80054 31648 ft 437 kts 93°
2026-05-07 13:26 52.08356 4.84962 31176 ft 433 kts 93°
2026-05-07 13:26 52.08242 4.89836 30704 ft 430 kts 93°
2026-05-07 13:27 52.08128 4.94672 30224 ft 426 kts 93°
2026-05-07 13:27 52.08014 4.99472 29696 ft 423 kts 93°
2026-05-07 13:27 52.07896 5.04234 29171 ft 420 kts 93°
2026-05-07 13:27 52.07773 5.08949 28652 ft 416 kts 93°
2026-05-07 13:28 52.07649 5.13635 28133 ft 413 kts 93°
2026-05-07 13:28 52.07529 5.18285 27645 ft 410 kts 93°
2026-05-07 13:28 52.07412 5.22897 27162 ft 407 kts 93°
2026-05-07 13:28 52.07294 5.27469 26696 ft 404 kts 93°
2026-05-07 13:29 52.07173 5.32023 26244 ft 401 kts 93°
2026-05-07 13:29 52.07050 5.36538 25811 ft 399 kts 93°
2026-05-07 13:29 52.06926 5.41028 25385 ft 396 kts 93°
2026-05-07 13:29 52.06800 5.45485 24976 ft 394 kts 94°
2026-05-07 13:30 52.06675 5.49920 24561 ft 392 kts 94°
2026-05-07 13:30 52.06549 5.54323 24267 ft 390 kts 94°
2026-05-07 13:30 52.06419 5.58724 24031 ft 390 kts 94°
2026-05-07 13:30 52.06283 5.63113 23792 ft 389 kts 94°
2026-05-07 13:31 52.06146 5.67494 23544 ft 387 kts 94°
2026-05-07 13:31 52.06011 5.71856 23267 ft 386 kts 94°
2026-05-07 13:31 52.05877 5.76200 22985 ft 384 kts 94°
2026-05-07 13:31 52.05745 5.80517 22711 ft 382 kts 94°
2026-05-07 13:32 52.05613 5.84830 22437 ft 381 kts 94°
2026-05-07 13:32 52.05479 5.89121 22168 ft 379 kts 94°
2026-05-07 13:32 52.05342 5.93393 21899 ft 378 kts 94°
2026-05-07 13:32 52.05203 5.97650 21634 ft 377 kts 94°
2026-05-07 13:33 52.05064 6.01890 21371 ft 375 kts 94°
2026-05-07 13:33 52.04923 6.06112 21129 ft 374 kts 94°
2026-05-07 13:33 52.04778 6.10320 21033 ft 372 kts 94°
2026-05-07 13:33 52.04634 6.14523 21056 ft 373 kts 94°
2026-05-07 13:34 52.04492 6.18730 21055 ft 373 kts 94°
2026-05-07 13:34 52.03326 6.26758 20432 ft 364 kts 122°
2026-05-07 13:34 52.01781 6.29979 19948 ft 361 kts 133°
2026-05-07 13:35 52.00116 6.33030 19462 ft 360 kts 133°
2026-05-07 13:35 51.98459 6.36058 19024 ft 358 kts 132°
2026-05-07 13:35 51.96810 6.39077 18574 ft 357 kts 133°
2026-05-07 13:35 51.95170 6.42084 18085 ft 355 kts 132°
2026-05-07 13:36 51.93543 6.45075 17601 ft 353 kts 132°
2026-05-07 13:36 51.91927 6.48048 17132 ft 350 kts 132°
2026-05-07 13:36 51.90316 6.51004 16665 ft 348 kts 132°
2026-05-07 13:36 51.88720 6.53925 16210 ft 346 kts 133°
2026-05-07 13:37 51.87131 6.56828 15757 ft 344 kts 133°
2026-05-07 13:37 51.85550 6.59714 15316 ft 341 kts 133°
2026-05-07 13:37 51.83982 6.62578 14903 ft 338 kts 133°
2026-05-07 13:37 51.82425 6.65415 14467 ft 336 kts 132°
2026-05-07 13:38 51.80877 6.68235 14077 ft 334 kts 132°
2026-05-07 13:38 51.79343 6.71030 13634 ft 332 kts 132°
2026-05-07 13:38 51.77816 6.73804 13168 ft 330 kts 133°
2026-05-07 13:38 51.76295 6.76557 12741 ft 327 kts 133°
2026-05-07 13:39 51.74804 6.79256 12295 ft 325 kts 133°
2026-05-07 13:39 51.73303 6.81974 11857 ft 324 kts 133°
2026-05-07 13:39 51.71809 6.84676 11438 ft 322 kts 132°
2026-05-07 13:39 51.70326 6.87354 11043 ft 319 kts 132°
2026-05-07 13:40 51.68851 6.90015 10646 ft 317 kts 132°
2026-05-07 13:40 51.67409 6.92616 10507 ft 306 kts 132°
2026-05-07 13:40 51.66017 6.95121 10363 ft 296 kts 132°
2026-05-07 13:40 51.64655 6.97571 10081 ft 292 kts 132°
2026-05-07 13:41 51.63306 6.99995 9737 ft 290 kts 132°
2026-05-07 13:41 51.61966 7.02404 9361 ft 288 kts 132°
2026-05-07 13:41 51.60631 7.04804 8999 ft 287 kts 132°
2026-05-07 13:41 51.59304 7.07184 8647 ft 285 kts 132°
2026-05-07 13:42 51.57982 7.09547 8292 ft 283 kts 131°
2026-05-07 13:42 51.56668 7.11890 7941 ft 282 kts 131°
2026-05-07 13:42 51.55359 7.14224 7605 ft 280 kts 131°
2026-05-07 13:42 51.54060 7.16545 7260 ft 279 kts 131°
2026-05-07 13:43 51.52767 7.18857 6902 ft 278 kts 131°
2026-05-07 13:43 51.51478 7.21156 6574 ft 276 kts 131°
2026-05-07 13:43 51.50205 7.23422 6094 ft 272 kts 131°
2026-05-07 13:43 51.48940 7.25668 5575 ft 270 kts 131°
2026-05-07 13:44 51.47679 7.27903 5060 ft 269 kts 131°
2026-05-07 13:44 51.46438 7.30100 4542 ft 262 kts 130°
2026-05-07 13:44 51.45245 7.32216 4146 ft 249 kts 131°
2026-05-07 13:44 51.44176 7.34287 3895 ft 232 kts 117°
2026-05-07 13:45 51.43728 7.36628 3704 ft 212 kts 90°
2026-05-07 13:45 51.43964 7.38834 3518 ft 194 kts 64°
2026-05-07 13:45 51.44573 7.40693 3271 ft 183 kts 58°
2026-05-07 13:45 51.45186 7.42423 3021 ft 174 kts 58°
2026-05-07 13:46 51.45774 7.44077 2807 ft 168 kts 57°
2026-05-07 13:46 51.46335 7.45661 2578 ft 161 kts 57°
2026-05-07 13:46 51.46881 7.47199 2365 ft 158 kts 58°
2026-05-07 13:46 51.47420 7.48721 2155 ft 156 kts 57°
2026-05-07 13:47 51.47953 7.50227 1970 ft 152 kts 58°
2026-05-07 13:47 51.48466 7.51680 1773 ft 148 kts 58°
2026-05-07 13:47 51.48971 7.53107 1560 ft 146 kts 57°
2026-05-07 13:47 51.49475 7.54536 1353 ft 147 kts 58°
2026-05-07 13:48 51.49978 7.55959 1133 ft 147 kts 59°
2026-05-07 13:48 51.50481 7.57385 942 ft 146 kts 58°
2026-05-07 13:48 51.50979 7.58799 726 ft 145 kts 57°
2026-05-07 13:48 51.51472 7.60198 505 ft 144 kts 58°
2026-05-07 13:49 51.51942 7.61530 414 ft 115 kts 62°
2026-05-07 13:49 51.52187 7.62227 414 ft 28 kts 60°
2026-05-07 13:49 51.52163 7.62330 413 ft 8 kts 152°
2026-05-07 13:49 51.52108 7.62383 413 ft 11 kts 150°
2026-05-07 13:50 51.52037 7.62349 412 ft 13 kts 234°
2026-05-07 13:50 51.51994 7.62223 410 ft 13 kts 241°
2026-05-07 13:50 51.51943 7.62080 411 ft 16 kts 240°
2026-05-07 13:50 51.51886 7.61917 413 ft 17 kts 240°
2026-05-07 13:51 51.51828 7.61753 415 ft 17 kts 240°
2026-05-07 13:51 51.51778 7.61611 419 ft 11 kts 240°
2026-05-07 13:51 51.51735 7.61545 422 ft 7 kts 204°
2026-05-07 13:51 51.51697 7.61501 420 ft 7 kts 229°
2026-05-07 13:52 51.51669 7.61425 427 ft 9 kts 240°
2026-05-07 13:52 51.51656 7.61388 427 ft 0 kts 240°
2026-05-07 13:54 51.51642 7.61325 427 ft 11 kts 283°
2026-05-07 13:54 51.51675 7.61322 426 ft 9 kts 53°
2026-05-07 13:55 51.51694 7.61385 424 ft 7 kts 86°
2026-05-07 13:55 51.51669 7.61437 420 ft 7 kts 163°
2026-05-07 13:55 51.51656 7.61411 431 ft 0 kts 275°
2026-05-07 13:55 51.51642 7.61461 422 ft 0 kts 332°